Weather History for KBPC - June, 2013

Change the Weather History Date:

Sunday, June 16, 2013

  Actual Average Record
Temperature  
Mean Temperature 80 °F -  
Max Temperature 95 °F - - ()
Min Temperature 64 °F - - ()
Cooling Degree Days 14    
Growing Degree Days 30 (Base 50)    
Moisture  
Dew Point 61 °F    
Average Humidity 55    
Maximum Humidity 94    
Minimum Humidity 28    
Precipitation  
Precipitation 0.00 in - - ()
Sea Level Pressure  
Sea Level Pressure 29.99 in    
Wind  
Wind Speed 15 mph (SE)    
Max Wind Speed 28 mph    
Max Gust Speed 37 mph    
Visibility 10 miles    
Events Rain    
Averages and records for this station are not official NWS values.
T = Trace of Precipitation, MM = Missing Value Source: NWS Daily Summary

Daily Weather History Graph

Daily Weather History Graph

Search for Another Location

Airport or City:

Trip Planner

Search our weather history database for the weather conditions in past years. The results will help you decide how hot, cold, wet, or windy it might be!

Date:

Astronomy

Jun. 16, 2013 Rise Set
Actual Time 6:27 AM CDT 9:02 PM CDT
Civil Twilight 5:57 AM CDT 9:32 PM CDT
Nautical Twilight 5:19 AM CDT 10:10 PM CDT
Astronomical Twilight 4:37 AM CDT 10:52 PM CDT
Moon 1:51 PM CDT (6/16) 1:20 AM CDT (6/16)
Length of Visible Light 15h 35m
Length of Day
14h 35m
Waxing Crescent, 50% of the Moon is Illuminated
Jun 16
Waxing Crescent
Jun 16
First Quarter
Jun 23
Full
Jun 29
Last Quarter
Jul 8
New

Hourly Weather History & Observations

Time (CDT) Temp. Heat Index Dew Point Humidity Pressure Visibility Wind Dir Wind Speed Gust Speed Precip Events Conditions
12:15 AM 78.8 °F - 60.8 °F 54% 29.88 in 10.0 mi South 27.6 mph 36.8 mph N/A   Clear
12:35 AM 77.0 °F - 60.8 °F 57% 29.89 in 10.0 mi South 25.3 mph 35.7 mph N/A   Clear
12:55 AM 77.0 °F - 62.6 °F 61% 29.91 in 10.0 mi South 19.6 mph 29.9 mph N/A   Clear
1:15 AM 75.2 °F - 62.6 °F 65% 29.93 in 10.0 mi South 16.1 mph 25.3 mph N/A   Clear
1:35 AM 75.2 °F - 62.6 °F 65% 29.95 in 10.0 mi South 13.8 mph - N/A   Clear
1:55 AM 73.4 °F - 62.6 °F 69% 29.98 in 10.0 mi South 4.6 mph - N/A   Clear
2:15 AM 73.4 °F - 62.6 °F 69% 30.01 in 10.0 mi North 9.2 mph - N/A   Clear
2:35 AM 73.4 °F - 62.6 °F 69% 30.02 in 10.0 mi North 3.5 mph - N/A   Clear
2:55 AM 73.4 °F - 62.6 °F 69% 30.03 in 10.0 mi NNE 10.4 mph - N/A   Clear
3:15 AM 73.4 °F - 62.6 °F 69% 30.05 in 10.0 mi NE 4.6 mph - N/A Rain Light Rain
3:35 AM 71.6 °F - 62.6 °F 73% 30.04 in 10.0 mi East 5.8 mph - N/A   Overcast
3:55 AM 71.6 °F - 62.6 °F 73% 30.02 in 10.0 mi NNE 3.5 mph - N/A   Mostly Cloudy
4:15 AM 71.6 °F - 62.6 °F 73% 30.01 in 10.0 mi North 9.2 mph - N/A   Scattered Clouds
4:35 AM 71.6 °F - 62.6 °F 73% 30.02 in 10.0 mi North 3.5 mph - N/A   Mostly Cloudy
4:55 AM 71.6 °F - 62.6 °F 73% 30.03 in 10.0 mi East 4.6 mph - N/A   Mostly Cloudy
5:15 AM 71.6 °F - 62.6 °F 73% 30.04 in 10.0 mi ENE 11.5 mph - N/A   Overcast
5:35 AM 71.6 °F - 62.6 °F 73% 30.05 in 10.0 mi East 12.7 mph - N/A   Overcast
5:55 AM 69.8 °F - 62.6 °F 78% 30.05 in 10.0 mi ENE 10.4 mph - N/A   Overcast
6:15 AM 69.8 °F - 62.6 °F 78% 30.06 in 10.0 mi East 13.8 mph 19.6 mph N/A   Scattered Clouds
6:35 AM 68.0 °F - 62.6 °F 83% 30.05 in 10.0 mi ENE 6.9 mph - N/A   Clear
6:55 AM 68.0 °F - 62.6 °F 83% 30.11 in 10.0 mi North 19.6 mph - N/A   Scattered Clouds
7:15 AM 68.0 °F - 59.0 °F 73% 30.10 in 10.0 mi NNE 15.0 mph 18.4 mph N/A   Mostly Cloudy
7:35 AM 66.2 °F - 60.8 °F 83% 30.09 in 10.0 mi ENE 18.4 mph 25.3 mph N/A   Mostly Cloudy
7:55 AM 66.2 °F - 60.8 °F 83% 30.10 in 10.0 mi East 17.3 mph 23.0 mph N/A   Overcast
8:15 AM 64.4 °F - 62.6 °F 94% 30.12 in 10.0 mi NNE 15.0 mph - N/A   Overcast
8:55 AM 64.4 °F - 62.6 °F 94% 30.09 in 10.0 mi East 15.0 mph 23.0 mph N/A   Overcast
9:15 AM 64.4 °F - 62.6 °F 94% 30.08 in 10.0 mi East 20.7 mph 26.5 mph N/A   Mostly Cloudy
9:35 AM 68.0 °F - 59.0 °F 73% 30.07 in 10.0 mi ESE 19.6 mph 24.2 mph N/A   Mostly Cloudy
9:55 AM 73.4 °F - 59.0 °F 61% 30.06 in 10.0 mi ESE 17.3 mph 20.7 mph N/A   Scattered Clouds
10:35 AM 78.8 °F - 55.4 °F 44% 30.05 in 10.0 mi ESE 9.2 mph - N/A   Scattered Clouds
10:55 AM 82.4 °F 81.4 °F 53.6 °F 37% 30.04 in 10.0 mi SE 12.7 mph - N/A   Clear
11:15 AM 84.2 °F 83.8 °F 59.0 °F 42% 30.04 in 10.0 mi SSE 9.2 mph - N/A   Clear
11:35 AM 86.0 °F 86.1 °F 60.8 °F 43% 30.04 in 10.0 mi South 12.7 mph 16.1 mph N/A   Clear
11:55 AM 86.0 °F 86.1 °F 60.8 °F 43% 30.05 in 10.0 mi South 9.2 mph 16.1 mph N/A   Clear
12:15 PM 86.0 °F 86.1 °F 60.8 °F 43% 30.04 in 10.0 mi SSE 15.0 mph - N/A   Scattered Clouds
12:35 PM 86.0 °F 86.1 °F 60.8 °F 43% 30.04 in 10.0 mi South 11.5 mph 17.3 mph N/A   Scattered Clouds
12:55 PM 86.0 °F 86.6 °F 62.6 °F 45% 30.04 in 10.0 mi South 10.4 mph - N/A   Scattered Clouds
1:15 PM 86.0 °F 86.6 °F 62.6 °F 45% 30.04 in 10.0 mi SW 8.1 mph - N/A   Mostly Cloudy
1:35 PM 87.8 °F 88.5 °F 62.6 °F 43% 30.03 in 10.0 mi SE 6.9 mph - N/A   Mostly Cloudy
1:55 PM 87.8 °F 87.6 °F 60.8 °F 40% 30.01 in 10.0 mi South 6.9 mph 19.6 mph N/A   Scattered Clouds
2:15 PM 89.6 °F 89.5 °F 60.8 °F 38% 30.01 in 10.0 mi South 9.2 mph 20.7 mph N/A   Scattered Clouds
2:35 PM 91.4 °F 91.4 °F 60.8 °F 36% 29.99 in 10.0 mi SSE 15.0 mph 21.9 mph N/A   Clear
2:55 PM 91.4 °F 90.7 °F 59.0 °F 34% 29.99 in 10.0 mi South 11.5 mph 18.4 mph N/A   Scattered Clouds
3:15 PM 91.4 °F 91.4 °F 60.8 °F 36% 29.98 in 10.0 mi South 17.3 mph 24.2 mph N/A   Scattered Clouds
3:35 PM 91.4 °F 90.7 °F 59.0 °F 34% 29.98 in 10.0 mi South 11.5 mph 21.9 mph N/A   Mostly Cloudy
3:55 PM 93.2 °F 92.6 °F 59.0 °F 32% 29.97 in 10.0 mi South 13.8 mph 21.9 mph N/A   Mostly Cloudy
4:15 PM 95.0 °F 95.2 °F 60.8 °F 32% 29.96 in 10.0 mi South 15.0 mph 20.7 mph N/A   Mostly Cloudy
4:35 PM 91.4 °F 90.7 °F 59.0 °F 34% 29.95 in 10.0 mi South 15.0 mph 28.8 mph N/A   Mostly Cloudy
4:55 PM 93.2 °F 92.6 °F 59.0 °F 32% 29.94 in 10.0 mi South 16.1 mph 19.6 mph N/A   Mostly Cloudy
5:15 PM 95.0 °F 93.7 °F 57.2 °F 28% 29.93 in 10.0 mi South 18.4 mph 23.0 mph N/A   Scattered Clouds
5:35 PM 95.0 °F 94.4 °F 59.0 °F 30% 29.93 in 10.0 mi South 17.3 mph 23.0 mph N/A   Scattered Clouds
5:55 PM 95.0 °F 94.4 °F 59.0 °F 30% 29.93 in 10.0 mi South 17.3 mph 20.7 mph N/A   Clear
6:15 PM 93.2 °F 92.6 °F 59.0 °F 32% 29.92 in 10.0 mi South 16.1 mph 21.9 mph N/A   Clear
6:35 PM 89.6 °F 88.9 °F 59.0 °F 36% 29.93 in 10.0 mi SSE 13.8 mph 21.9 mph N/A   Clear
6:55 PM 89.6 °F 88.9 °F 59.0 °F 36% 29.93 in 10.0 mi South 10.4 mph - N/A   Clear
7:15 PM 89.6 °F 89.5 °F 60.8 °F 38% 29.91 in 10.0 mi SE 11.5 mph 17.3 mph N/A   Clear
7:35 PM 89.6 °F 88.9 °F 59.0 °F 36% 29.87 in 10.0 mi SSE 20.7 mph 26.5 mph N/A   Clear
7:55 PM 89.6 °F 88.9 °F 59.0 °F 36% 29.87 in 10.0 mi SSE 20.7 mph - N/A   Clear
8:15 PM 87.8 °F 87.6 °F 60.8 °F 40% 29.89 in 10.0 mi SE 17.3 mph 24.2 mph N/A   Clear
8:35 PM 87.8 °F 87.6 °F 60.8 °F 40% 29.90 in 10.0 mi ESE 16.1 mph 21.9 mph N/A   Clear
8:55 PM 86.0 °F 86.1 °F 60.8 °F 43% 29.91 in 10.0 mi ESE 17.3 mph 24.2 mph N/A   Clear
9:15 PM 86.0 °F 86.6 °F 62.6 °F 45% 29.90 in 10.0 mi SE 13.8 mph 20.7 mph N/A   Clear
9:35 PM 84.2 °F 85.0 °F 62.6 °F 48% 29.90 in 10.0 mi ESE 12.7 mph 23.0 mph N/A   Clear
9:55 PM 82.4 °F 83.4 °F 62.6 °F 51% 29.91 in 10.0 mi SE 12.7 mph 18.4 mph N/A   Clear
10:15 PM 80.6 °F 81.8 °F 62.6 °F 54% 29.92 in 10.0 mi SSE 9.2 mph - N/A   Clear
10:35 PM 78.8 °F - 64.4 °F 61% 29.95 in 10.0 mi NE 11.5 mph - N/A   Clear
10:55 PM 77.0 °F - 66.2 °F 69% 29.95 in 10.0 mi Calm Calm - N/A   Clear
11:15 PM 75.2 °F - 66.2 °F 73% 29.98 in 10.0 mi NE 8.1 mph - N/A   Clear
11:35 PM 75.2 °F - 64.4 °F 69% 30.02 in 10.0 mi NNE 21.9 mph 31.1 mph N/A   Scattered Clouds
11:55 PM 71.6 °F - 60.8 °F 69% 30.02 in 10.0 mi NE 13.8 mph 32.2 mph N/A   Scattered Clouds